Time,TemperatureF,DewpointF,PressureIn,WindDirection,WindDirectionDegrees,WindSpeedMPH,WindSpeedGustMPH,Humidity,HourlyPrecipIn,Conditions,Clouds,dailyrainin,SolarRadiationWatts/m^2,SoftwareType,DateUTC
2014-01-18 00:02:00,38.0,19.0,-100.00,WSW,245,2.0,16.0,46,0.00,,,0.00,0.000000,,2014-01-18 07:02:00,
2014-01-18 00:12:00,38.0,19.0,-100.00,WSW,245,2.0,16.0,46,0.00,,,0.00,0.000000,,2014-01-18 07:12:00,
2014-01-18 00:42:00,38.0,19.0,-100.00,West,272,4.0,13.0,46,0.00,,,0.00,0.000000,,2014-01-18 07:42:00,
2014-01-18 00:53:00,38.0,19.0,-100.00,West,272,4.0,13.0,46,0.00,,,0.00,0.000000,,2014-01-18 07:53:00,
2014-01-18 01:02:00,38.0,19.0,-100.00,West,272,4.0,13.0,46,0.00,,,0.00,0.000000,,2014-01-18 08:02:00,
2014-01-18 01:11:00,38.0,19.0,-100.00,West,272,4.0,13.0,46,0.00,,,0.00,0.000000,,2014-01-18 08:11:00,
2014-01-18 01:42:00,43.0,17.0,-100.00,NNW,343,14.0,23.0,35,0.00,,,0.00,0.000000,,2014-01-18 08:42:00,
2014-01-18 01:52:00,43.0,17.0,-100.00,NNW,343,14.0,23.0,35,0.00,,,0.00,0.000000,,2014-01-18 08:52:00,
2014-01-18 02:02:00,43.0,17.0,-100.00,NNW,343,14.0,23.0,35,0.00,,,0.00,0.000000,,2014-01-18 09:02:00,
2014-01-18 02:12:00,43.0,17.0,-100.00,NNW,343,14.0,23.0,35,0.00,,,0.00,0.000000,,2014-01-18 09:12:00,
2014-01-18 02:43:00,43.0,14.0,-100.00,NW,319,8.0,27.0,31,0.00,,,0.00,0.000000,,2014-01-18 09:43:00,
2014-01-18 02:53:00,43.0,14.0,-100.00,NW,319,8.0,27.0,31,0.00,,,0.00,0.000000,,2014-01-18 09:53:00,
2014-01-18 03:03:00,43.0,14.0,-100.00,NW,319,8.0,27.0,31,0.00,,,0.00,0.000000,,2014-01-18 10:03:00,
2014-01-18 03:12:00,43.0,14.0,-100.00,NW,319,8.0,27.0,31,0.00,,,0.00,0.000000,,2014-01-18 10:12:00,
2014-01-18 03:42:00,42.0,16.0,-100.00,NW,326,19.0,38.0,35,0.00,,,0.00,0.000000,,2014-01-18 10:42:00,
2014-01-18 03:53:00,42.0,16.0,-100.00,NW,326,19.0,38.0,35,0.00,,,0.00,0.000000,,2014-01-18 10:53:00,
2014-01-18 04:02:00,42.0,16.0,-100.00,NW,326,19.0,38.0,35,0.00,,,0.00,0.000000,,2014-01-18 11:02:00,
2014-01-18 04:11:00,42.0,16.0,-100.00,NW,326,19.0,38.0,35,0.00,,,0.00,0.000000,,2014-01-18 11:11:00,
2014-01-18 04:42:00,40.0,16.0,-100.00,NNW,329,23.0,45.0,38,0.00,,,-99.99,0.000000,,2014-01-18 11:42:00,
2014-01-18 04:53:00,40.0,16.0,-100.00,NNW,329,23.0,45.0,38,0.00,,,-99.99,0.000000,,2014-01-18 11:53:00,
2014-01-18 05:02:00,40.0,16.0,-100.00,NNW,329,23.0,45.0,38,0.00,,,-99.99,0.000000,,2014-01-18 12:02:00,
2014-01-18 05:11:00,40.0,16.0,-100.00,NNW,329,23.0,45.0,38,0.00,,,-99.99,0.000000,,2014-01-18 12:11:00,
2014-01-18 05:42:00,39.0,15.0,-100.00,NNW,333,30.0,48.0,37,0.00,,,0.00,0.000000,,2014-01-18 12:42:00,
2014-01-18 05:52:00,39.0,15.0,-100.00,NNW,333,30.0,48.0,37,0.00,,,0.00,0.000000,,2014-01-18 12:52:00,
2014-01-18 06:02:00,39.0,15.0,-100.00,NNW,333,30.0,48.0,37,0.00,,,0.00,0.000000,,2014-01-18 13:02:00,
2014-01-18 06:11:00,39.0,15.0,-100.00,NNW,333,30.0,48.0,37,0.00,,,0.00,0.000000,,2014-01-18 13:11:00,
2014-01-18 06:52:00,39.0,12.0,-100.00,NNW,334,28.0,49.0,32,0.00,,,0.00,0.000000,,2014-01-18 13:52:00,
2014-01-18 07:02:00,39.0,12.0,-100.00,NNW,334,28.0,49.0,32,0.00,,,0.00,0.000000,,2014-01-18 14:02:00,
2014-01-18 07:11:00,39.0,12.0,-100.00,NNW,334,28.0,49.0,32,0.00,,,0.00,0.000000,,2014-01-18 14:11:00,
2014-01-18 07:42:00,38.0,7.0,-100.00,NNW,335,26.0,45.0,27,0.00,,,0.00,0.000000,,2014-01-18 14:42:00,
2014-01-18 07:52:00,38.0,7.0,-100.00,NNW,335,26.0,45.0,27,0.00,,,0.00,0.000000,,2014-01-18 14:52:00,
2014-01-18 08:02:00,38.0,7.0,-100.00,NNW,335,26.0,45.0,27,0.00,,,0.00,0.000000,,2014-01-18 15:02:00,
2014-01-18 08:11:00,38.0,7.0,-100.00,NNW,335,26.0,45.0,27,0.00,,,0.00,0.000000,,2014-01-18 15:11:00,
2014-01-18 08:44:00,40.0,2.0,-100.00,NNW,346,22.0,42.0,20,0.00,,,0.00,42.000000,,2014-01-18 15:44:00,
2014-01-18 08:53:00,40.0,2.0,-100.00,NNW,346,22.0,42.0,20,0.00,,,0.00,42.000000,,2014-01-18 15:53:00,
2014-01-18 09:03:00,40.0,2.0,-100.00,NNW,346,22.0,42.0,20,0.00,,,0.00,42.000000,,2014-01-18 16:03:00,
2014-01-18 09:13:00,40.0,2.0,-100.00,NNW,346,22.0,42.0,20,0.00,,,0.00,42.000000,,2014-01-18 16:13:00,
2014-01-18 09:43:00,43.0,0.0,-100.00,NNW,345,9.0,44.0,16,0.00,,,0.00,178.000000,,2014-01-18 16:43:00,
2014-01-18 09:52:00,43.0,0.0,-100.00,NNW,345,9.0,44.0,16,0.00,,,0.00,178.000000,,2014-01-18 16:52:00,
2014-01-18 10:02:00,43.0,0.0,-100.00,NNW,345,9.0,44.0,16,0.00,,,0.00,178.000000,,2014-01-18 17:02:00,
2014-01-18 10:12:00,43.0,0.0,-100.00,NNW,345,9.0,44.0,16,0.00,,,0.00,178.000000,,2014-01-18 17:12:00,
2014-01-18 10:42:00,45.0,-1.0,-100.00,WNW,297,10.0,26.0,14,0.00,,,0.00,315.000000,,2014-01-18 17:42:00,
2014-01-18 10:52:00,45.0,-1.0,-100.00,WNW,297,10.0,26.0,14,0.00,,,0.00,315.000000,,2014-01-18 17:52:00,
2014-01-18 11:02:00,45.0,-1.0,-100.00,WNW,297,10.0,26.0,14,0.00,,,0.00,315.000000,,2014-01-18 18:02:00,
2014-01-18 11:12:00,45.0,-1.0,-100.00,WNW,297,10.0,26.0,14,0.00,,,0.00,315.000000,,2014-01-18 18:12:00,
2014-01-18 12:42:00,49.0,-5.0,-100.00,WNW,284,6.0,16.0,10,0.00,,,0.00,458.000000,,2014-01-18 19:42:00,
2014-01-18 12:52:00,49.0,-5.0,-100.00,WNW,284,6.0,16.0,10,0.00,,,0.00,458.000000,,2014-01-18 19:52:00,
2014-01-18 13:02:00,49.0,-5.0,-100.00,WNW,284,6.0,16.0,10,0.00,,,0.00,458.000000,,2014-01-18 20:02:00,
2014-01-18 13:11:00,49.0,-5.0,-100.00,WNW,284,6.0,16.0,10,0.00,,,0.00,458.000000,,2014-01-18 20:11:00,
2014-01-18 14:43:00,50.0,4.0,-100.00,ESE,118,5.0,13.0,15,0.00,,,0.00,378.000000,,2014-01-18 21:43:00,
2014-01-18 14:53:00,50.0,4.0,-100.00,ESE,118,5.0,13.0,15,0.00,,,0.00,378.000000,,2014-01-18 21:53:00,
2014-01-18 15:03:00,50.0,4.0,-100.00,ESE,118,5.0,13.0,15,0.00,,,0.00,378.000000,,2014-01-18 22:03:00,
2014-01-18 15:13:00,50.0,4.0,-100.00,ESE,118,5.0,13.0,15,0.00,,,0.00,378.000000,,2014-01-18 22:13:00,
2014-01-18 15:43:00,47.0,9.0,-100.00,SE,142,7.0,12.0,21,0.00,,,0.00,267.000000,,2014-01-18 22:43:00,
2014-01-18 15:53:00,47.0,9.0,-100.00,SE,142,7.0,12.0,21,0.00,,,0.00,267.000000,,2014-01-18 22:53:00,
2014-01-18 16:02:00,47.0,9.0,-100.00,SE,142,7.0,12.0,21,0.00,,,0.00,267.000000,,2014-01-18 23:02:00,
2014-01-18 16:11:00,47.0,9.0,-100.00,SE,142,7.0,12.0,21,0.00,,,0.00,267.000000,,2014-01-18 23:11:00,
2014-01-18 16:42:00,43.0,12.0,-100.00,SW,215,1.0,9.0,28,0.00,,,0.00,125.000000,,2014-01-18 23:42:00,
2014-01-18 16:53:00,43.0,12.0,-100.00,SW,215,1.0,9.0,28,0.00,,,0.00,125.000000,,2014-01-18 23:53:00,
2014-01-18 17:02:00,43.0,12.0,-100.00,SW,215,1.0,9.0,28,0.00,,,0.00,125.000000,,2014-01-19 00:02:00,
2014-01-18 17:11:00,43.0,12.0,-100.00,SW,215,1.0,9.0,28,0.00,,,0.00,125.000000,,2014-01-19 00:11:00,
2014-01-18 19:52:00,37.0,16.0,-100.00,SE,143,3.0,17.0,41,0.00,,,0.00,0.000000,,2014-01-19 02:52:00,
2014-01-18 20:02:00,37.0,16.0,-100.00,SE,143,3.0,17.0,41,0.00,,,0.00,0.000000,,2014-01-19 03:02:00,
2014-01-18 20:11:00,37.0,16.0,-100.00,SE,143,3.0,17.0,41,0.00,,,0.00,0.000000,,2014-01-19 03:11:00,
2014-01-18 20:43:00,35.0,16.0,-100.00,South,185,4.0,6.0,46,0.00,,,0.00,0.000000,,2014-01-19 03:43:00,
2014-01-18 20:53:00,35.0,16.0,-100.00,South,185,4.0,6.0,46,0.00,,,0.00,0.000000,,2014-01-19 03:53:00,
2014-01-18 21:03:00,-999.0,-99.9,-100.00,South,185,4.0,6.0,-999,0.00,,,0.00,0.000000,,2014-01-19 04:03:00,
2014-01-18 21:13:00,35.0,16.0,-100.00,South,185,4.0,6.0,46,0.00,,,0.00,0.000000,,2014-01-19 04:13:00,
2014-01-18 21:43:00,34.0,14.0,-100.00,North,7,2.0,7.0,44,0.00,,,0.00,0.000000,,2014-01-19 04:43:00,
2014-01-18 21:52:00,34.0,14.0,-100.00,North,7,2.0,7.0,44,0.00,,,0.00,0.000000,,2014-01-19 04:52:00,
2014-01-18 22:02:00,34.0,14.0,-100.00,North,7,2.0,7.0,44,0.00,,,0.00,0.000000,,2014-01-19 05:02:00,
2014-01-18 22:12:00,34.0,14.0,-100.00,North,7,2.0,7.0,44,0.00,,,0.00,0.000000,,2014-01-19 05:12:00,
2014-01-18 22:43:00,39.0,14.0,-100.00,SE,135,5.0,8.0,35,0.00,,,0.00,0.000000,,2014-01-19 05:43:00,
2014-01-18 22:52:00,39.0,14.0,-100.00,SE,135,5.0,8.0,35,0.00,,,0.00,0.000000,,2014-01-19 05:52:00,
2014-01-18 23:02:00,39.0,14.0,-100.00,SE,135,5.0,8.0,35,0.00,,,0.00,0.000000,,2014-01-19 06:02:00,
2014-01-18 23:12:00,39.0,14.0,-100.00,SE,135,5.0,8.0,35,0.00,,,0.00,0.000000,,2014-01-19 06:12:00,
2014-01-18 23:42:00,44.0,13.0,-100.00,NNE,21,3.0,10.0,28,0.00,,,0.00,0.000000,,2014-01-19 06:42:00,
2014-01-18 23:52:00,44.0,13.0,-100.00,NNE,21,3.0,10.0,28,0.00,,,0.00,0.000000,,2014-01-19 06:52:00,